This is the latest recevied weather packets stored in our database for station/object HS3PIK-2. If no packets are shown the sender has not sent any weather packets the latest 1 day(s).
| Time | Temp. | Humidity | Pressure | Rain* | Wind** | Luminosity | Snow |
|---|---|---|---|---|---|---|---|
| 1778044047 | 29.44° C | 78% | - | - | 0 m/s | 0 W/m² | - |
| 1778043720 | 31.11° C | 73% | - | - | 0 m/s | 0 W/m² | - |
| 1778043395 | 31.67° C | 70% | - | - | 0 m/s | 0 W/m² | - |
| 1778043065 | 32.78° C | 68% | - | - | 0 m/s | 0 W/m² | - |
| 1778042735 | 33.33° C | 67% | - | - | 0 m/s | 0 W/m² | - |
| 1778042405 | 33.89° C | 65% | - | - | 0 m/s | 0 W/m² | - |
| 1778042083 | 34.44° C | 62% | - | - | 0 m/s | 0 W/m² | - |
| 1778041755 | 35° C | 62% | - | - | 0 m/s | 0 W/m² | - |
| 1778041428 | 35° C | 63% | - | - | 0 m/s | 0 W/m² | - |
| 1778041098 | 34.44° C | 65% | - | - | 0 m/s | 0 W/m² | - |
| 1778040770 | 34.44° C | 63% | - | - | 0 m/s | 0 W/m² | - |
| 1778040438 | 34.44° C | 65% | - | - | 0 m/s | 0 W/m² | - |
| 1778040108 | 34.44° C | 67% | - | - | 0 m/s | 0 W/m² | - |
| 1778039778 | 34.44° C | 65% | - | - | 0 m/s | 0 W/m² | - |
| 1778039453 | 33.89° C | 65% | - | - | 0 m/s | 0 W/m² | - |
| 1778039128 | 33.33° C | 66% | - | - | 0 m/s | 0 W/m² | - |
| 1778038801 | 33.33° C | 65% | - | - | 0 m/s | 0 W/m² | - |
| 1778038478 | 33.33° C | 67% | - | - | 0 m/s | 0 W/m² | - |
| 1778038151 | 33.89° C | 66% | - | - | 0 m/s | 0 W/m² | - |
| 1778037826 | 33.33° C | 65% | - | - | 0 m/s | 0 W/m² | - |
| 1778037493 | 32.78° C | 67% | - | - | 0 m/s | 0 W/m² | - |
| 1778037166 | 32.78° C | 68% | - | - | 0 m/s | 0 W/m² | - |
| 1778036839 | 32.78° C | 70% | - | - | 0 m/s | 0 W/m² | - |
| 1778036514 | 32.78° C | 70% | - | - | 0 m/s | 0 W/m² | - |
| 1778036186 | 32.78° C | 71% | - | - | 0 m/s | 0 W/m² | - |
* Rain since midnight (hover to see other rain measurements)
** Current wind speed in m/s (hover to see current wind gust speed)